Edinburg, TX

2:38 PM CST on February 27, 2017 (GMT -0600)
Edinburg

Weather History for KEBG - February, 2014

Change the Weather History Date:

Thursday, February 6, 2014

  Actual Average (KMFE) Record (KMFE)
Temperature  
Mean Temperature 42 °F -  
Max Temperature 50 °F 71 °F 89 °F (1974)
Min Temperature 35 °F 52 °F 31 °F (1982)
Degree Days  
Heating Degree Days 22    
Moisture  
Dew Point 31 °F    
Average Humidity 73    
Maximum Humidity 91    
Minimum Humidity 55    
Precipitation  
Precipitation 0.00 in - - ()
Sea Level Pressure  
Sea Level Pressure 30.35 in    
Wind  
Wind Speed 14 mph (North)    
Max Wind Speed 22 mph    
Max Gust Speed 29 mph    
Visibility 8 miles    
Events Rain    
Averages and records for this station are not official NWS values.
T = Trace of Precipitation, MM = Missing Value Source: NWS Daily Summary

Daily Weather History Graph

Daily Weather History Graph

Search for Another Location

Airport or City:

Trip Planner

Search our weather history database for the weather conditions in past years. The results will help you decide how hot, cold, wet, or windy it might be!

Date:

Astronomy

Feb. 06, 2014 Rise Set
Actual Time 7:14 AM CST 6:19 PM CST
Civil Twilight 6:50 AM CST 6:43 PM CST
Nautical Twilight 6:23 AM CST 7:10 PM CST
Astronomical Twilight 5:55 AM CST 7:37 PM CST
Moon 11:53 AM CST (2/6) 12:31 AM CST (2/6)
Length of Visible Light 11h 52m
Length of Day
11h 04m
Waxing Crescent, 49% of the Moon is Illuminated
Feb 6
Waxing Crescent
Feb 6
First Quarter
Feb 14
Full
Feb 22
Last Quarter
Mar 1
New

Hourly Weather History & Observations

Time (CST) Temp. Windchill Dew Point Humidity Pressure Visibility Wind Dir Wind Speed Gust Speed Precip Events Conditions
12:15 AM 50.5 °F - 35.6 °F 57% 30.28 in 10.0 mi NNE 15.0 mph 20.7 mph N/A   Overcast
12:35 AM 50.2 °F - 35.1 °F 56% 30.28 in 10.0 mi NNE 16.1 mph 20.7 mph N/A   Overcast
12:55 AM 49.6 °F - 34.7 °F 56% 30.28 in 10.0 mi NNE 16.1 mph 24.2 mph N/A   Overcast
1:15 AM 49.5 °F - 34.2 °F 56% 30.28 in 10.0 mi NNE 17.3 mph 21.9 mph N/A   Overcast
1:35 AM 48.7 °F - 33.1 °F 55% 30.28 in 10.0 mi NNE 16.1 mph 24.2 mph N/A   Overcast
1:55 AM 48.2 °F - 32.9 °F 55% 30.28 in 10.0 mi NNE 18.4 mph - N/A   Overcast
2:15 AM 47.3 °F - 32.2 °F 56% 30.28 in 10.0 mi NNE 17.3 mph 23.0 mph N/A   Overcast
2:35 AM 46.4 °F 39.8 °F 31.8 °F 57% 30.27 in 10.0 mi NNE 16.1 mph 25.3 mph N/A   Overcast
2:55 AM 45.7 °F 39.8 °F 31.5 °F 58% 30.27 in 10.0 mi NNE 12.7 mph - N/A   Overcast
3:15 AM 45.5 °F 38.3 °F 31.3 °F 58% 30.28 in 10.0 mi NNE 17.3 mph 20.7 mph N/A   Overcast
3:35 AM 44.6 °F 36.1 °F 30.2 °F 57% 30.27 in 10.0 mi NNE 21.9 mph 28.8 mph N/A   Overcast
3:55 AM 44.1 °F 37.4 °F 30.2 °F 58% 30.28 in 10.0 mi NNE 13.8 mph 21.9 mph N/A   Overcast
4:15 AM 43.3 °F 36.5 °F 30.0 °F 59% 30.29 in 10.0 mi North 13.8 mph 25.3 mph N/A   Overcast
4:35 AM 42.4 °F 34.1 °F 30.0 °F 61% 30.29 in 10.0 mi North 18.4 mph - N/A   Overcast
4:55 AM 41.7 °F 33.4 °F 30.4 °F 64% 30.30 in 10.0 mi North 17.3 mph 20.7 mph N/A   Overcast
5:15 AM 41.0 °F 31.9 °F 30.0 °F 65% 30.31 in 10.0 mi North 19.6 mph 24.2 mph N/A   Overcast
5:35 AM 40.3 °F 31.0 °F 29.8 °F 66% 30.33 in 10.0 mi North 19.6 mph 25.3 mph N/A   Overcast
5:55 AM 40.1 °F 32.0 °F 30.2 °F 68% 30.33 in 10.0 mi North 15.0 mph 20.7 mph N/A   Overcast
6:15 AM 38.8 °F 31.2 °F 31.6 °F 75% 30.35 in 7.0 mi North 12.7 mph 23.0 mph N/A   Light Drizzle
6:35 AM 37.6 °F 29.1 °F 32.4 °F 81% 30.36 in 5.0 mi North 13.8 mph 23.0 mph N/A   Haze
6:55 AM 37.0 °F 28.5 °F 32.9 °F 85% 30.38 in 4.0 mi NNW 13.8 mph - N/A   Overcast
7:15 AM 36.5 °F 28.2 °F 33.3 °F 88% 30.38 in 2.5 mi NNW 12.7 mph - N/A   Drizzle
7:35 AM 36.1 °F 26.2 °F 33.3 °F 89% 30.39 in 2.5 mi North 17.3 mph 20.7 mph N/A   Drizzle
7:55 AM 36.1 °F 26.9 °F 33.4 °F 90% 30.39 in 2.0 mi NNW 15.0 mph 19.6 mph N/A   Light Drizzle
8:15 AM 36.0 °F 26.7 °F 33.3 °F 90% 30.39 in 1.8 mi North 15.0 mph - N/A Rain Light Rain
8:35 AM 35.6 °F 27.1 °F 32.9 °F 90% 30.41 in 2.0 mi North 12.7 mph - N/A   Overcast
8:55 AM 35.6 °F 26.2 °F 32.9 °F 90% 30.42 in 2.0 mi North 15.0 mph - N/A   Overcast
9:15 AM 35.2 °F 25.8 °F 32.5 °F 90% 30.43 in 2.0 mi North 15.0 mph - N/A   Overcast
9:35 AM 35.2 °F 26.6 °F 32.5 °F 90% 30.43 in 2.0 mi North 12.7 mph - N/A   Overcast
9:55 AM 35.6 °F 26.2 °F 32.7 °F 89% 30.43 in 2.5 mi North 15.0 mph - N/A   Overcast
10:15 AM 35.8 °F 26.9 °F 32.9 °F 89% 30.44 in 4.0 mi NNW 13.8 mph 18.4 mph N/A   Overcast
10:35 AM 35.6 °F 25.9 °F 32.9 °F 90% 30.44 in 4.0 mi North 16.1 mph - N/A   Overcast
10:55 AM 35.8 °F 26.9 °F 32.5 °F 88% 30.43 in 4.0 mi North 13.8 mph - N/A   Overcast
11:15 AM 35.6 °F 26.2 °F 32.5 °F 89% 30.43 in 3.0 mi North 15.0 mph - N/A   Overcast
11:35 AM 35.6 °F 26.2 °F 32.9 °F 90% 30.43 in 2.5 mi North 15.0 mph 20.7 mph N/A   Light Drizzle
11:55 AM 36.0 °F 27.5 °F 33.1 °F 89% 30.42 in 2.0 mi North 12.7 mph - N/A Rain Light Rain
12:15 PM 35.8 °F 26.1 °F 32.9 °F 89% 30.41 in 1.8 mi NNW 16.1 mph - N/A Rain Rain
12:35 PM 36.0 °F 27.1 °F 33.3 °F 90% 30.40 in 1.8 mi North 13.8 mph - N/A   Drizzle
12:55 PM 36.3 °F 27.5 °F 33.8 °F 91% 30.40 in 1.8 mi NNW 13.8 mph - N/A   Drizzle
1:15 PM 36.5 °F 28.7 °F 33.8 °F 90% 30.38 in 1.8 mi NNW 11.5 mph 17.3 mph N/A   Light Drizzle
1:35 PM 36.1 °F 26.9 °F 33.4 °F 90% 30.38 in 2.0 mi North 15.0 mph 18.4 mph N/A   Overcast
1:55 PM 36.5 °F 27.0 °F 33.4 °F 89% 30.37 in 3.0 mi North 16.1 mph 20.7 mph N/A   Overcast
2:15 PM 36.9 °F 28.2 °F 33.1 °F 86% 30.36 in 5.0 mi North 13.8 mph 19.6 mph N/A   Overcast
2:35 PM 37.2 °F 29.1 °F 32.2 °F 82% 30.35 in 7.0 mi North 12.7 mph - N/A   Overcast
2:55 PM 37.4 °F 28.5 °F 32.0 °F 81% 30.35 in 10.0 mi North 15.0 mph - N/A   Overcast
3:15 PM 38.3 °F 30.9 °F 32.0 °F 78% 30.35 in 10.0 mi North 11.5 mph - N/A   Overcast
3:35 PM 38.3 °F 32.5 °F 32.0 °F 78% 30.35 in 10.0 mi North 8.1 mph - N/A   Overcast
3:55 PM 38.3 °F 29.7 °F 31.1 °F 75% 30.35 in 10.0 mi North 15.0 mph 20.7 mph N/A   Overcast
4:15 PM 38.5 °F 30.7 °F 31.5 °F 76% 30.35 in 10.0 mi North 12.7 mph - N/A   Overcast
4:35 PM 38.8 °F 30.8 °F 31.5 °F 75% 30.35 in 10.0 mi North 13.8 mph - N/A   Overcast
4:55 PM 38.8 °F 32.1 °F 30.9 °F 73% 30.35 in 10.0 mi North 10.4 mph - N/A   Overcast
5:15 PM 39.0 °F 31.4 °F 30.9 °F 73% 30.35 in 10.0 mi North 12.7 mph - N/A   Overcast
5:35 PM 38.8 °F 32.1 °F 30.4 °F 72% 30.35 in 10.0 mi North 10.4 mph - N/A   Overcast
5:55 PM 39.2 °F 31.2 °F 30.0 °F 70% 30.35 in 10.0 mi North 13.8 mph - N/A   Overcast
6:15 PM 38.8 °F 31.2 °F 29.8 °F 70% 30.36 in 10.0 mi North 12.7 mph - N/A   Overcast
6:35 PM 38.8 °F 33.2 °F 29.3 °F 69% 30.35 in 10.0 mi North 8.1 mph - N/A   Overcast
6:55 PM 38.8 °F 32.1 °F 29.1 °F 68% 30.36 in 10.0 mi North 10.4 mph - N/A   Overcast
7:15 PM 38.8 °F 32.1 °F 28.6 °F 67% 30.36 in 10.0 mi North 10.4 mph - N/A   Overcast
7:35 PM 39.0 °F 34.0 °F 28.9 °F 67% 30.36 in 10.0 mi North 6.9 mph - N/A   Overcast
7:55 PM 39.2 °F 33.6 °F 28.2 °F 65% 30.36 in 10.0 mi North 8.1 mph - N/A   Overcast
8:15 PM 39.0 °F 32.8 °F 28.0 °F 65% 30.36 in 10.0 mi North 9.2 mph - N/A   Overcast
8:35 PM 38.8 °F 32.1 °F 27.9 °F 65% 30.36 in 10.0 mi North 10.4 mph - N/A   Overcast
8:55 PM 38.8 °F 33.8 °F 27.9 °F 65% 30.36 in 10.0 mi North 6.9 mph - N/A   Overcast
9:15 PM 38.8 °F 33.2 °F 27.7 °F 64% 30.36 in 10.0 mi North 8.1 mph - N/A   Overcast
9:35 PM 39.0 °F 34.0 °F 27.7 °F 64% 30.37 in 10.0 mi NNW 6.9 mph - N/A   Overcast
9:55 PM 38.8 °F 33.2 °F 27.3 °F 63% 30.36 in 10.0 mi NNW 8.1 mph - N/A   Overcast
10:15 PM 38.8 °F 32.6 °F 27.0 °F 62% 30.36 in 10.0 mi NNW 9.2 mph - N/A   Overcast
10:35 PM 38.8 °F 32.1 °F 26.6 °F 61% 30.36 in 10.0 mi NNW 10.4 mph - N/A   Overcast
10:55 PM 38.8 °F 32.6 °F 27.3 °F 63% 30.36 in 10.0 mi NNW 9.2 mph - N/A   Overcast
11:15 PM 38.8 °F 31.6 °F 26.8 °F 62% 30.35 in 10.0 mi NNW 11.5 mph - N/A   Overcast
11:35 PM 38.8 °F 32.1 °F 26.8 °F 62% 30.34 in 10.0 mi NNW 10.4 mph - N/A   Overcast
11:55 PM 38.8 °F 31.2 °F 26.6 °F 61% 30.33 in 10.0 mi NNW 12.7 mph - N/A   Overcast